This is the latest recevied weather packets stored in our database for station/object N2ZVN. If no packets are shown the sender has not sent any weather packets the latest 10 day(s).
| Time | Temp. | Humidity | Pressure | Rain* | Wind** | Luminosity | Snow |
|---|---|---|---|---|---|---|---|
| 1777559031 | 8.89° C | 68% | 1011.4 hPa | 0 mm | - | 491 W/m² | - |
| 1777558727 | 8.89° C | 69% | 1011.3 hPa | 0 mm | - | 471 W/m² | - |
| 1777558423 | 8.89° C | 70% | 1011.3 hPa | 0 mm | - | 468 W/m² | - |
| 1777558119 | 8.33° C | 70% | 1011.4 hPa | 0 mm | - | 351 W/m² | - |
| 1777557816 | 8.33° C | 71% | 1011.3 hPa | 0 mm | - | 373 W/m² | - |
| 1777557513 | 8.33° C | 69% | 1011.2 hPa | 0 mm | - | 351 W/m² | - |
| 1777557209 | 8.33° C | 69% | 1011.2 hPa | 0 mm | - | 353 W/m² | - |
| 1777556905 | 8.33° C | 69% | 1011.2 hPa | 0 mm | - | 420 W/m² | - |
| 1777556601 | 8.89° C | 72% | 1011 hPa | 0 mm | - | 345 W/m² | - |
| 1777556301 | 8.33° C | 71% | 1011.1 hPa | 0 mm | - | 383 W/m² | - |
| 1777555997 | 8.33° C | 70% | 1011 hPa | 0 mm | - | 357 W/m² | - |
| 1777555692 | 8.33° C | 73% | 1011 hPa | 0 mm | - | 363 W/m² | - |
| 1777555389 | 7.78° C | 73% | 1010.9 hPa | 0 mm | - | 384 W/m² | - |
| 1777555085 | 7.78° C | 73% | 1011 hPa | 0 mm | - | 284 W/m² | - |
| 1777554783 | 7.78° C | 75% | 1011.1 hPa | 0 mm | - | 264 W/m² | - |
| 1777554480 | 7.78° C | 75% | 1010.9 hPa | 0 mm | - | 275 W/m² | - |
| 1777554176 | 7.78° C | 74% | 1010.9 hPa | 0 mm | - | 269 W/m² | - |
| 1777553873 | 7.78° C | 78% | 1011.1 hPa | 0 mm | - | 269 W/m² | - |
| 1777553569 | 7.78° C | 78% | 1011.1 hPa | 0 mm | - | 291 W/m² | - |
| 1777553265 | 7.78° C | 79% | 1011.2 hPa | 0 mm | - | 207 W/m² | - |
| 1777552962 | 7.78° C | 81% | 1011.1 hPa | 0 mm | - | 209 W/m² | - |
| 1777552656 | 7.78° C | 82% | 1011 hPa | 0 mm | - | 181 W/m² | - |
| 1777552354 | 7.22° C | 81% | 1011 hPa | 0 mm | - | 185 W/m² | - |
| 1777552050 | 7.22° C | 83% | 1011 hPa | 0 mm | - | 184 W/m² | - |
| 1777551747 | 6.67° C | 84% | 1011.2 hPa | 0 mm | - | 225 W/m² | - |
* Rain latest hour (hover to see other rain measurements)
** Current wind speed in m/s (hover to see current wind gust speed)